This is the latest recevied weather packets stored in our database for station/object K0SDS. If no packets are shown the sender has not sent any weather packets the latest 10 day(s).
| Time | Temp. | Humidity | Pressure | Rain* | Wind** | Luminosity | Snow |
|---|---|---|---|---|---|---|---|
| 1777768340 | 16.67° C | 38% | 1017.6 hPa | 0 mm | - | 24 W/m² | - |
| 1777768037 | 17.78° C | 32% | 1017.6 hPa | 0 mm | - | 28 W/m² | - |
| 1777767734 | 18.33° C | 35% | 1017.6 hPa | 0 mm | - | 31 W/m² | - |
| 1777767429 | 18.33° C | 34% | 1017.9 hPa | 0 mm | - | 68 W/m² | - |
| 1777767126 | 18.89° C | 30% | 1017.9 hPa | 0 mm | - | 79 W/m² | - |
| 1777766824 | 18.89° C | 30% | 1017.7 hPa | 0 mm | - | 95 W/m² | - |
| 1777766521 | 18.89° C | 28% | 1017.8 hPa | 0 mm | - | 103 W/m² | - |
| 1777766218 | 19.44° C | 34% | 1017.8 hPa | 0 mm | - | 108 W/m² | - |
| 1777765916 | 19.44° C | 31% | 1018 hPa | 0 mm | - | 115 W/m² | - |
| 1777765612 | 19.44° C | 35% | 1017.9 hPa | 0 mm | - | 123 W/m² | - |
| 1777765309 | 19.44° C | 30% | 1018 hPa | 0 mm | - | 137 W/m² | - |
| 1777765005 | 18.89° C | 31% | 1018.2 hPa | 0 mm | - | 139 W/m² | - |
| 1777764702 | 18.89° C | 31% | 1018 hPa | 0 mm | - | 152 W/m² | - |
| 1777764398 | 18.33° C | 33% | 1017.9 hPa | 0 mm | - | 163 W/m² | - |
| 1777764096 | 18.33° C | 36% | 1018.1 hPa | 0 mm | - | 177 W/m² | - |
| 1777763792 | 19.44° C | 29% | 1018.2 hPa | 0 mm | - | 178 W/m² | - |
| 1777763490 | 19.44° C | 31% | 1018.3 hPa | 0 mm | - | 189 W/m² | - |
| 1777763188 | 18.89° C | 36% | 1018.4 hPa | 0 mm | - | 196 W/m² | - |
| 1777762886 | 19.44° C | 29% | 1018.3 hPa | 0 mm | - | 210 W/m² | - |
| 1777762581 | 19.44° C | 31% | 1018.3 hPa | 0 mm | - | 230 W/m² | - |
| 1777762279 | 18.89° C | 34% | 1018.6 hPa | 0 mm | - | 251 W/m² | - |
| 1777761975 | 18.89° C | 30% | 1018.4 hPa | 0 mm | - | 266 W/m² | - |
| 1777761672 | 19.44° C | 36% | 1018.6 hPa | 0 mm | - | 290 W/m² | - |
| 1777761370 | 18.89° C | 30% | 1018.5 hPa | 0 mm | - | 299 W/m² | - |
| 1777761068 | 18.89° C | 29% | 1018.4 hPa | 0 mm | - | 290 W/m² | - |
* Rain latest hour (hover to see other rain measurements)
** Current wind speed in m/s (hover to see current wind gust speed)